Voltar ao catálogo

ORBCOMM FM 34

AtivoComunicaçõesLEO
NORAD 25986·PAYLOAD·🇺🇸 United States

Lançado Dec 4, 1999 de Cape Canaveral Space Force Station

Loading…

Próximas Passagens (próximas 24 horas)

TLE

AtualizadoSource: Space-Track

Época: Sep 14, 2026, 14:45 UTC

1 25986U 99065G   26257.61515149  .00000436  00000-0  18924-3 0  9993
2 25986  45.0381 104.5342 0004427  94.1332 266.0023 14.38057811400293

Acompanhe ORBCOMM FM 34 em tempo real com AllMySat

Download on the App Store